231346 Weather Reports


time (UTC)temp
F
wind
direction
speed
knots
gust
knots
rain 1hr
in
rain 24hr
in
rain mn
in
humidity
%
barometer
mb
20260503233005 0 338 0.0 0.0 0.00 0.00 0.00 1009.6
20260503231502 0 336 0.0 0.0 0.00 0.00 0.00 1009.8
20260503230100 0 338 0.0 0.0 0.00 0.00 0.00 1010.0
20260503224553 0 336 0.0 0.0 0.00 0.00 0.00 1010.2
20260503223048 0 341 0.0 0.0 0.00 0.00 0.00 1010.5
20260503221545 0 347 0.0 0.0 0.00 0.00 0.00 1010.7
20260503220041 0 339 0.0 0.0 0.00 0.00 0.00 1010.9
20260503214543 0 342 0.0 0.0 0.00 0.00 0.00 1011.0
20260503213050 0 342 0.0 0.0 0.00 0.00 0.00 1011.2
20260503211532 0 334 0.0 0.0 0.00 0.00 0.00 1011.3
20260503210023 0 340 0.0 0.0 0.00 0.00 0.00 1011.5
20260503204521 0 350 0.0 0.0 0.00 0.00 0.00 1011.8
20260503203022 0 350 0.0 0.0 0.00 0.00 0.00 1012.0
20260503201512 0 355 0.0 0.0 0.00 0.00 0.00 1012.2
20260503200007 0 345 0.0 0.0 0.00 0.00 0.00 1012.4
20260503194509 0 340 0.0 0.0 0.00 0.00 0.00 1012.6
20260503193101 0 342 0.0 0.0 0.00 0.00 0.00 1012.7
20260503191605 0 347 0.0 0.0 0.00 0.00 0.00 1012.9
20260503190053 0 347 0.0 0.0 0.00 0.00 0.00 1013.0
20260503184605 0 355 0.0 0.0 0.00 0.00 0.00 1013.2
20260503183047 0 350 0.0 0.0 0.00 0.00 0.00 1013.4
20260503181540 0 355 0.0 0.0 0.00 0.00 0.00 1013.5
20260503180036 0 350 0.0 0.0 0.00 0.00 0.00 1013.6
20260503174544 0 339 0.0 0.0 0.00 0.00 0.00 1013.7
20260503173029 0 13 0.0 0.0 0.00 0.00 0.00 1013.8
20260503171529 0 13 0.0 0.0 0.00 0.00 0.00 1013.9
20260503081505 0 297 0.0 2.6 0.00 0.00 0.00 1014.4
20260503071506 0 182 0.0 0.0 0.00 0.00 0.00 1014.3
20260503054502 0 182 0.0 0.0 0.00 0.00 0.00 1014.0
20260503053002 0 182 0.0 0.0 0.00 0.00 0.00 1014.1
20260503051500 0 182 0.0 0.0 0.00 0.00 0.00 1014.0
20260503050103 0 182 0.0 0.0 0.00 0.00 0.00 1014.0
20260503044601 0 182 0.0 0.0 0.00 0.00 0.00 1013.9
20260503043101 0 182 0.0 0.0 0.00 0.00 0.00 1013.6
20260503041559 0 156 0.0 0.0 0.00 0.00 0.00 1013.5
20260503040058 0 156 0.0 0.0 0.00 0.00 0.00 1013.2
20260503034600 0 156 0.0 0.0 0.00 0.00 0.00 1013.1
20260503033102 0 156 0.0 0.0 0.00 0.00 0.00 1012.8
20260503031558 0 156 0.0 0.0 0.00 0.00 0.00 1012.8
20260503030057 0 156 0.0 0.0 0.00 0.00 0.00 1012.7
20260503024619 0 156 0.0 0.9 0.00 0.00 0.00 1012.6
20260503023059 0 156 0.0 0.9 0.00 0.00 0.00 1012.5
20260503021558 0 156 0.0 0.9 0.00 0.00 0.00 1012.4
20260503014619 0 156 0.0 0.9 0.00 0.00 0.00 1012.3
20260503013051 0 119 0.0 0.9 0.00 0.00 0.00 1012.3
20260503011600 0 119 0.0 0.0 0.00 0.00 0.00 1012.3
20260503010042 0 119 0.0 0.0 0.00 0.00 0.00 1012.4
20260503004540 0 119 0.0 0.0 0.00 0.00 0.00 1012.4
20260503003039 0 94 0.0 0.0 0.00 0.00 0.00 1012.5
20260503001531 0 26 0.0 0.0 0.00 0.00 0.00 1012.6
20260503000026 0 321 0.9 4.3 0.00 0.00 0.00 1012.8
20260502234531 0 331 1.7 3.5 0.00 0.00 0.00 1012.9